Location: Bessat
(45.8735°N, 1.9924°E)
Time: 07:38:48
(UTC+00:00)

ATLAS 2AS CENTAUR R/B - Pass Details

Date: 11 May 2021
Orbit: 949 x 1263 km, 63.7° (Epoch: 07 May)

Event Time Altitude Azimuth Distance (km) Brightness Sun altitude
Rises 23:14:02 0° 318° (NW) 4,069 6.6 -25.5°
Reaches altitude 10° 23:17:01 10° 311° (NW) 3,057 5.7 -25.6°
Maximum altitude 23:23:37 39° 246° (WSW) 1,572 3.4 -25.7°
Enters shadow 23:24:29 38° 229° (SW) 1,597 3.3 -25.8°
